Details for Ryanair at LPPT




Go Back


Latest METAR
Local Time

LPPT 180600Z 02003KT 320V080 CAVOK 18/16 Q1015
18/08/2018, 07:28:25

Description
Results
Ryanair Logo
Number of Pilots based at LPPT
0 Pilots Based here
Number of Ryanair Flights Departed from LPPT
4 Flights Departed
Number of Ryanair Flights Arrived at LPPT
4 Flights Arrived
Number of Ryanair Schedules Departing from LPPT
94 Schedules
Number of Ryanair Schedules Arriving at LPPT
96 Schedules
Number of Ryanair Schedules Departing from LPPT availible today
27 Schedules Today
Number of Ryanair Schedules Arriving at LPPT availible today
27 Schedules Today
Average Landing Rate at LPPT
-220 fpm
Ryanair Average Landing Rate at LPPT
-277 fpm
Total Fuel Purchased at LPPT by Ryanair
21,883.56 kgs / 48,244.50 lbs

Pilots Based at LPPT


Pilot ID
Pilot Name
Pilot Rank
No. of Flights
No. of Flying Hours
There are no pilots assigned to this hub!   Will you be the first?
Content